Wind_Speed
7 7 8 5 3 3 3 2 3 4 5 6 6 7 7 8 8 9 9 9 10 10 11 11 11 12 12 13 13 13 13 13 13 13 13 14 14 14 14 15 15 16 16 15 15 14 13 12 11
7 7 7 6 5 3 3 4 5 5 6 7 7 8 8 9 9 10 11 11 10 11 12 12 13 13 14 14 15 15 15 15 15 15 15 16 16 15 15 16 16 16 16 16 16 15 14 13 11
7 7 6 6 6 4 4 5 5 6 7 7 7 8 9 10 10 11 12 12 12 12 13 14 15 15 15 16 16 17 17 17 18 18 18 18 18 17 17 17 17 17 17 16 16 16 15 14 12
8 7 6 6 6 5 5 6 6 7 8 7 7 8 9 10 11 12 12 13 13 13 14 15 16 17 17 18 19 19 19 20 20 20 20 20 20 20 20 19 19 19 18 17 17 17 16 15 14
9 9 7 7 6 7 7 8 8 9 8 7 8 8 9 10 12 12 13 13 14 15 16 16 17 18 18 19 20 20 21 21 21 22 22 22 22 22 21 21 21 21 21 20 19 18 17 16 15
11 10 9 8 8 8 10 10 10 10 8 8 8 9 10 11 11 12 13 14 15 16 17 17 17 18 18 19 20 21 22 23 23 23 23 24 24 23 24 23 22 22 21 22 21 20 19 17 16
12 12 10 9 10 10 10 10 11 9 8 8 9 9 10 11 11 13 14 15 16 17 18 19 19 19 20 20 21 22 24 24 24 25 24 24 25 26 26 26 25 24 24 23 23 21 20 19 18
14 13 12 11 11 11 11 11 10 10 9 9 9 9 10 11 12 13 14 15 17 18 19 20 20 20 21 21 22 23 24 25 26 26 26 26 26 26 27 27 27 27 26 25 24 23 22 21 20
15 14 13 13 12 12 12 12 11 10 9 8 8 9 10 11 12 13 14 16 17 18 19 20 20 21 21 21 22 23 24 25 26 27 28 29 29 29 28 28 29 29 28 27 26 25 25 23 23
15 14 13 13 13 13 12 11 10 9 7 7 8 9 10 11 12 13 14 15 17 18 18 19 19 20 20 20 21 21 22 23 25 27 28 29 30 30 30 30 30 29 29 29 28 27 26 25 23
16 15 14 14 13 13 12 10 8 8 7 8 8 9 10 11 12 13 14 15 16 17 18 18 18 18 18 18 19 20 21 22 23 25 27 28 28 29 30 31 31 30 30 30 29 28 27 27 25
16 15 14 14 13 12 11 9 8 8 8 8 8 9 10 11 12 13 14 15 16 17 17 18 18 17 17 17 18 18 19 20 21 22 23 25 27 27 27 28 30 30 31 30 30 29 28 27 26
17 16 15 14 13 12 11 9 8 8 8 8 9 10 10 10 12 13 14 14 15 17 17 18 18 17 17 17 17 18 18 18 19 20 21 22 23 25 26 26 28 30 31 30 30 29 29 28 27
17 16 15 14 12 11 10 10 9 7 8 8 8 9 10 10 11 12 13 14 15 16 17 18 18 18 17 17 18 18 18 17 18 18 19 20 21 23 24 25 26 27 29 30 30 30 30 29 29
16 16 14 12 11 11 10 9 8 7 7 8 8 9 9 9 10 12 13 14 15 17 18 19 19 19 17 17 17 18 17 17 17 17 17 18 19 20 22 23 25 26 27 28 29 30 30 30 30
16 15 14 11 10 9 9 9 8 7 7 7 7 7 7 8 10 11 13 14 16 17 18 19 19 18 17 17 17 17 17 17 17 17 17 17 18 19 20 21 23 25 26 27 28 29 29 30 30
16 14 12 10 9 9 9 8 7 7 7 6 6 6 7 7 9 11 12 14 16 17 18 18 19 19 18 18 18 18 18 18 18 17 17 17 17 17 18 19 21 22 24 25 26 27 28 29 30
16 14 12 10 10 10 10 9 8 7 6 6 6 5 5 7 9 10 12 13 15 17 18 19 19 20 19 19 19 19 19 18 18 18 17 17 16 16 16 17 18 20 21 23 24 25 27 28 29
14 12 10 10 10 10 9 8 8 7 6 6 5 4 4 5 8 10 11 13 15 16 18 19 20 21 20 20 20 20 19 19 19 18 17 16 15 14 14 14 15 16 18 20 22 23 25 27 27
13 12 10 10 10 10 9 8 8 7 6 5 4 4 4 5 7 9 11 13 15 16 17 19 20 21 22 21 21 20 20 20 19 18 17 16 15 14 13 13 13 14 16 18 20 21 23 25 27
13 12 11 10 11 10 9 8 8 7 6 5 4 3 3 4 7 9 11 13 14 16 17 19 20 21 22 22 21 21 21 20 20 19 17 16 15 13 12 11 11 12 13 15 18 20 21 23 25
13 13 12 11 11 11 9 9 8 7 6 5 4 3 3 4 6 8 10 12 14 16 17 19 20 21 22 22 22 22 22 22 21 20 18 16 15 13 11 10 10 10 11 13 15 18 20 22 23
13 13 12 11 11 10 10 9 8 7 6 5 4 3 2 3 5 7 9 11 13 15 17 19 20 21 22 22 23 22 22 22 22 21 19 17 15 13 12 10 10 9 9 10 13 15 17 20 22
13 13 12 11 10 10 9 8 8 7 6 5 4 2 2 3 4 6 9 11 13 15 16 18 20 21 22 23 23 23 23 23 22 21 20 18 16 14 12 10 10 9 8 9 9 11 15 17 20
13 12 11 11 10 9 8 8 8 8 6 5 4 2 1 2 4 6 8 10 12 14 16 17 19 21 22 23 23 23 23 23 23 22 21 19 18 15 13 11 10 8 7 6 7 8 11 14 17
13 12 11 10 9 8 9 8 8 8 7 6 4 3 2 2 4 6 8 10 11 13 15 17 19 20 22 23 24 24 23 23 23 23 21 20 19 17 14 12 11 9 7 6 6 7 9 12 14
12 11 10 11 10 9 8 8 8 8 7 6 5 4 2 2 3 5 7 9 11 13 14 16 18 20 21 22 23 24 24 23 23 22 22 21 20 18 16 13 11 10 8 7 5 5 7 10 12
11 10 11 11 11 10 8 8 9 9 8 7 6 4 3 2 3 5 6 8 10 12 14 16 18 19 21 21 22 23 24 24 24 23 22 21 20 19 18 15 13 11 10 8 6 5 6 8 10
10 10 11 11 11 10 9 8 9 9 8 7 6 5 4 3 3 5 6 8 9 11 13 15 17 19 20 21 22 23 24 24 24 24 23 22 20 19 18 17 15 13 11 9 7 6 5 6 8
10 11 11 11 10 10 9 8 10 10 9 8 7 6 5 4 4 5 6 8 9 11 13 15 16 18 19 20 21 22 23 23 24 24 24 23 21 20 19 18 16 14 12 10 8 6 5 5 5
Wind_Direction
333 325 320 338 14 45 60 31 351 337 330 330 328 324 317 312 309 304 303 301 295 298 296 289 290 292 290 284 279 277 275 275 273 269 266 265 262 258 255 256 255 252 252 252 257 263 266 272 277
327 326 335 349 10 14 357 336 331 326 322 323 322 320 318 316 315 313 310 307 300 296 293 291 290 289 289 285 281 279 275 274 272 270 268 265 264 262 258 258 256 255 254 255 258 259 262 268 272
316 316 336 343 348 348 337 329 322 319 316 318 318 320 319 317 318 316 314 308 303 299 296 294 291 287 284 282 281 279 276 275 273 271 269 267 265 263 261 260 258 257 256 257 258 258 260 264 267
308 311 317 332 337 338 324 323 320 317 313 312 315 320 320 318 317 314 313 310 305 301 299 297 292 286 282 280 279 279 278 277 275 271 267 266 265 263 261 260 259 259 258 257 258 260 260 261 262
298 301 309 315 323 324 321 316 314 319 313 315 321 323 322 320 319 315 313 311 309 307 303 300 296 291 287 283 280 278 276 275 274 271 267 265 264 262 260 258 258 259 258 255 256 258 259 259 257
286 294 302 310 313 314 313 314 315 319 316 321 325 327 325 323 321 318 314 311 309 308 306 302 298 295 291 286 280 277 275 273 273 271 267 265 264 263 261 258 257 258 259 257 256 256 256 256 255
278 287 298 301 307 307 307 312 318 315 317 323 326 327 325 323 321 318 315 312 310 309 307 305 301 297 291 286 281 276 274 272 271 270 268 265 264 262 261 258 256 257 258 258 255 254 254 253 252
277 285 292 296 298 302 304 310 316 313 313 321 328 329 325 324 324 321 317 314 311 310 308 305 302 298 295 291 285 279 275 273 272 270 269 267 266 264 261 259 258 258 257 257 256 253 252 252 251
275 280 284 293 297 301 305 308 312 314 312 319 327 326 325 327 326 323 321 320 318 316 313 310 307 304 299 294 289 284 279 276 273 270 268 267 266 265 262 260 260 258 256 255 255 253 251 251 249
273 279 284 290 298 300 304 307 311 310 312 319 323 325 328 329 327 326 327 326 324 321 317 314 311 307 304 300 295 290 285 280 276 272 269 267 265 264 263 260 259 258 255 253 253 252 249 248 247
268 277 284 289 295 300 304 305 312 315 318 320 320 322 327 329 329 331 332 331 329 326 325 324 320 315 310 306 301 296 291 286 280 276 272 269 266 265 263 260 259 258 254 252 253 252 248 246 245
265 271 279 283 289 295 300 303 306 311 313 315 316 320 326 330 334 337 336 335 334 334 335 334 331 326 320 315 310 305 300 294 286 281 276 273 269 265 262 260 258 257 254 252 251 251 248 245 244
263 270 278 282 284 289 294 297 298 297 302 308 312 318 325 334 339 340 340 340 342 342 342 341 339 334 329 324 320 315 309 303 296 288 282 278 273 269 264 261 258 255 254 250 248 248 245 243 243
263 270 277 277 281 290 297 296 293 295 301 307 312 317 325 337 344 346 348 349 349 348 348 346 344 339 333 329 327 323 317 311 305 297 289 283 278 272 267 261 258 255 253 250 247 245 243 242 240
258 264 270 275 277 282 290 291 292 293 295 302 310 320 332 342 350 353 353 353 353 352 350 348 346 343 339 335 333 330 326 321 315 307 297 289 284 278 271 264 259 256 254 250 247 244 241 239 238
252 259 266 271 273 281 289 291 288 286 291 298 307 321 333 345 354 356 356 357 357 355 353 352 351 348 345 341 337 335 331 326 320 314 306 298 290 282 275 267 261 257 255 253 250 245 240 237 237
247 255 265 273 277 278 282 285 285 287 288 293 304 318 330 348 358 359 359 0 -0 359 358 357 356 354 350 346 342 339 336 331 325 320 312 306 297 287 278 271 264 259 255 253 251 246 242 237 234
243 249 259 268 270 270 274 279 280 280 279 288 303 317 333 350 359 3 2 3 3 2 1 1 360 358 355 351 347 344 340 336 332 327 320 314 307 295 284 276 269 262 256 252 249 244 239 237 233
241 248 257 263 266 269 272 272 271 270 272 284 300 315 336 354 3 5 5 7 6 6 6 6 4 3 1 357 353 349 346 343 338 334 328 322 317 306 291 282 272 263 258 253 248 244 238 235 232
239 247 257 260 262 265 265 264 263 262 265 278 295 314 342 359 7 9 11 11 10 9 9 8 7 6 5 2 359 355 352 349 346 342 337 331 324 314 300 290 279 269 260 253 247 242 236 234 231
240 248 252 253 255 258 257 255 253 253 257 270 287 310 338 2 9 12 13 14 14 14 12 10 9 8 7 5 3 0 358 356 354 351 346 341 335 325 313 299 289 278 266 254 246 241 234 231 230
236 246 249 251 251 251 250 245 243 242 248 260 274 296 333 358 7 13 16 17 17 16 14 12 11 10 8 7 5 3 1 360 358 356 353 349 344 337 327 313 301 292 275 260 250 243 236 231 230
237 243 247 248 248 249 247 244 238 235 240 246 258 278 320 356 11 16 17 17 16 15 14 12 11 10 10 8 6 4 3 2 1 0 358 354 350 344 338 326 314 302 289 273 257 247 238 232 230
234 239 244 243 246 247 244 240 234 233 231 235 243 261 315 0 14 16 14 14 16 15 13 11 11 11 10 9 7 6 6 5 5 4 3 359 355 350 345 337 330 318 303 284 265 247 237 232 233
230 237 241 240 244 246 244 239 235 230 225 224 228 248 307 358 11 12 12 14 15 14 12 12 11 10 10 9 10 9 8 7 8 8 7 6 3 359 354 349 343 335 318 296 274 252 239 235 234
231 236 241 242 241 245 245 242 232 228 225 224 229 245 283 342 2 9 12 13 13 12 11 11 10 9 9 10 10 10 9 9 10 10 10 11 10 7 1 356 351 344 335 315 285 264 248 240 237
229 236 243 246 248 250 248 241 233 230 227 224 230 244 270 320 350 4 10 10 10 10 10 9 8 8 9 9 9 10 10 10 10 10 11 11 11 10 7 2 356 352 344 334 305 276 259 246 240
236 241 246 249 253 253 248 241 232 229 228 226 231 244 265 303 335 352 358 2 4 5 6 6 6 7 8 8 8 9 10 11 11 11 11 11 11 11 10 7 3 358 353 351 335 305 276 254 243
245 249 252 253 255 255 246 236 231 230 229 228 233 243 259 287 315 335 345 352 357 360 1 2 3 5 6 7 7 8 9 11 12 12 12 11 11 11 11 10 8 6 2 357 351 340 314 278 256
246 251 253 253 255 256 250 237 232 229 226 230 236 242 255 275 299 322 334 343 348 352 356 358 0 2 4 5 6 7 8 9 11 12 13 14 14 13 12 10 9 8 6 4 358 350 336 318 285
Height
5886 5885 5884 5883 5883 5883 5883 5883 5882 5882 5881 5881 5880 5879 5879 5879 5879 5880 5877 5875 5874 5873 5872 5871 5870 5869 5869 5868 5868 5867 5867 5867 5867 5867 5867 5867 5867 5868 5868 5869 5870 5870 5871 5872 5873 5874 5875 5876 5876
5886 5885 5885 5884 5883 5883 5883 5883 5882 5881 5881 5880 5879 5878 5877 5876 5876 5875 5873 5872 5871 5871 5870 5869 5868 5867 5866 5866 5865 5865 5864 5864 5864 5864 5864 5864 5865 5865 5865 5866 5867 5867 5868 5870 5871 5872 5873 5874 5874
5885 5885 5885 5884 5883 5883 5883 5882 5881 5881 5880 5879 5878 5877 5876 5875 5874 5873 5872 5870 5869 5868 5867 5866 5865 5864 5864 5863 5862 5861 5861 5861 5861 5860 5861 5861 5861 5862 5862 5863 5864 5864 5865 5866 5867 5869 5870 5871 5872
5885 5884 5884 5884 5883 5883 5882 5882 5881 5880 5879 5878 5877 5876 5874 5874 5872 5871 5869 5868 5867 5866 5865 5864 5862 5861 5860 5860 5859 5858 5857 5857 5857 5856 5857 5857 5857 5858 5858 5859 5860 5861 5862 5863 5864 5865 5867 5868 5869
5884 5883 5882 5882 5881 5882 5881 5880 5879 5878 5877 5876 5875 5874 5873 5872 5870 5868 5867 5866 5865 5863 5862 5860 5859 5858 5857 5856 5855 5854 5854 5853 5852 5852 5852 5852 5853 5853 5854 5855 5856 5857 5858 5859 5860 5861 5863 5864 5866
5883 5882 5882 5881 5880 5880 5879 5879 5878 5876 5876 5875 5874 5872 5871 5870 5868 5866 5865 5863 5862 5860 5859 5857 5855 5854 5853 5851 5850 5850 5849 5848 5848 5847 5847 5848 5848 5849 5849 5850 5851 5852 5853 5855 5856 5858 5859 5861 5863
5882 5881 5880 5879 5879 5879 5878 5877 5876 5875 5874 5873 5872 5871 5869 5868 5866 5864 5863 5861 5859 5857 5855 5854 5852 5850 5848 5847 5846 5845 5844 5844 5843 5843 5842 5842 5843 5844 5844 5845 5846 5847 5849 5850 5852 5853 5855 5857 5859
5879 5879 5878 5878 5878 5878 5877 5876 5875 5874 5873 5872 5871 5869 5868 5867 5864 5862 5861 5859 5856 5854 5852 5850 5848 5846 5844 5842 5841 5839 5839 5838 5838 5837 5837 5837 5837 5838 5839 5840 5841 5842 5843 5845 5846 5848 5851 5852 5855
5877 5878 5876 5876 5876 5876 5875 5874 5874 5872 5871 5870 5869 5868 5866 5864 5862 5860 5858 5856 5853 5851 5848 5846 5844 5841 5839 5837 5836 5834 5833 5832 5832 5831 5831 5831 5832 5832 5833 5834 5835 5836 5838 5839 5841 5844 5846 5848 5850
5875 5875 5875 5875 5875 5874 5873 5872 5872 5871 5869 5868 5867 5866 5864 5862 5860 5858 5856 5853 5851 5848 5846 5843 5840 5837 5835 5833 5831 5829 5828 5827 5826 5825 5825 5825 5825 5826 5826 5827 5829 5830 5832 5833 5835 5838 5840 5843 5845
5872 5873 5872 5872 5872 5872 5871 5870 5870 5869 5868 5867 5865 5864 5862 5860 5858 5856 5853 5851 5848 5846 5843 5840 5837 5834 5831 5829 5827 5825 5823 5821 5820 5819 5819 5819 5819 5819 5820 5820 5822 5823 5825 5827 5830 5832 5834 5837 5840
5870 5870 5870 5870 5870 5869 5869 5868 5868 5867 5867 5865 5864 5862 5860 5858 5856 5854 5851 5849 5846 5843 5840 5837 5834 5831 5828 5825 5823 5820 5818 5816 5815 5814 5813 5812 5812 5812 5813 5814 5815 5816 5818 5821 5823 5826 5828 5831 5834
5867 5868 5868 5868 5868 5867 5867 5866 5866 5865 5864 5863 5862 5860 5858 5856 5854 5852 5849 5847 5844 5841 5837 5834 5831 5828 5825 5822 5819 5816 5814 5812 5810 5808 5807 5806 5806 5806 5806 5807 5808 5810 5811 5814 5816 5819 5822 5825 5828
5865 5865 5866 5865 5865 5865 5865 5864 5864 5863 5862 5861 5860 5858 5856 5854 5852 5850 5847 5845 5842 5839 5835 5832 5828 5825 5822 5819 5816 5813 5810 5807 5805 5803 5802 5801 5800 5799 5799 5800 5801 5803 5804 5806 5809 5812 5815 5818 5822
5862 5863 5863 5863 5863 5863 5863 5862 5862 5861 5860 5860 5858 5857 5855 5853 5850 5848 5846 5843 5840 5837 5833 5830 5826 5823 5819 5816 5813 5810 5806 5804 5801 5799 5797 5795 5794 5793 5793 5793 5794 5795 5797 5799 5802 5805 5808 5812 5815
5859 5860 5861 5861 5861 5860 5862 5861 5860 5859 5858 5858 5857 5855 5853 5851 5849 5847 5844 5842 5839 5835 5832 5828 5824 5821 5817 5814 5810 5807 5804 5800 5798 5795 5792 5790 5789 5788 5787 5787 5787 5788 5790 5792 5794 5797 5800 5804 5808
5856 5858 5858 5859 5859 5859 5859 5859 5858 5857 5857 5856 5855 5854 5852 5850 5848 5846 5843 5840 5837 5834 5831 5827 5823 5819 5815 5812 5808 5804 5801 5798 5794 5791 5788 5786 5784 5782 5781 5781 5781 5782 5783 5785 5787 5790 5793 5797 5801
5854 5855 5856 5856 5857 5857 5857 5857 5856 5856 5855 5854 5854 5852 5851 5849 5847 5845 5842 5840 5836 5833 5830 5826 5822 5818 5814 5810 5806 5802 5798 5795 5791 5788 5784 5782 5779 5777 5776 5776 5776 5776 5777 5779 5781 5783 5787 5790 5794
5850 5852 5853 5854 5854 5855 5855 5855 5854 5854 5854 5853 5852 5851 5850 5848 5846 5844 5841 5839 5836 5832 5829 5825 5821 5817 5812 5808 5804 5800 5796 5792 5788 5785 5781 5778 5775 5773 5772 5771 5770 5771 5772 5773 5775 5777 5780 5784 5788
5848 5850 5851 5852 5852 5852 5853 5853 5852 5852 5852 5852 5851 5850 5848 5847 5845 5843 5841 5838 5835 5832 5828 5824 5820 5816 5812 5807 5803 5799 5795 5791 5786 5782 5779 5775 5772 5770 5768 5767 5766 5766 5767 5768 5770 5772 5775 5778 5782
5846 5848 5849 5850 5850 5850 5851 5852 5851 5851 5850 5850 5849 5849 5847 5846 5844 5842 5840 5837 5834 5831 5828 5824 5820 5816 5811 5807 5802 5798 5794 5789 5785 5781 5777 5773 5770 5767 5765 5763 5763 5762 5762 5763 5765 5766 5769 5772 5776
5844 5845 5846 5847 5848 5849 5850 5850 5850 5849 5849 5849 5848 5848 5846 5845 5843 5841 5839 5837 5834 5831 5827 5824 5820 5816 5811 5807 5802 5798 5793 5789 5784 5779 5775 5772 5768 5765 5763 5761 5760 5759 5759 5759 5760 5762 5764 5767 5771
5842 5843 5844 5845 5846 5847 5847 5848 5849 5848 5848 5848 5847 5847 5846 5844 5843 5841 5839 5836 5834 5831 5827 5824 5820 5816 5812 5807 5802 5798 5793 5788 5784 5779 5774 5770 5767 5764 5761 5759 5757 5756 5756 5756 5756 5758 5760 5763 5766
5839 5841 5842 5843 5844 5845 5845 5846 5847 5846 5846 5847 5846 5846 5845 5844 5842 5840 5838 5836 5834 5831 5828 5824 5820 5816 5812 5808 5803 5798 5793 5788 5784 5779 5774 5770 5766 5763 5760 5758 5756 5755 5754 5753 5753 5754 5756 5759 5762
5838 5840 5841 5841 5842 5843 5843 5844 5845 5845 5845 5845 5845 5845 5844 5843 5841 5840 5838 5836 5833 5831 5828 5824 5821 5817 5813 5808 5803 5799 5794 5789 5784 5779 5774 5770 5766 5762 5760 5757 5755 5753 5752 5751 5751 5752 5753 5755 5758
5836 5838 5840 5840 5840 5841 5841 5842 5844 5843 5843 5844 5844 5843 5843 5842 5841 5839 5838 5836 5833 5831 5828 5824 5821 5817 5813 5809 5804 5799 5795 5790 5785 5780 5775 5771 5767 5763 5760 5757 5755 5752 5751 5750 5750 5750 5751 5752 5754
5834 5835 5837 5838 5838 5839 5839 5841 5841 5841 5842 5842 5842 5842 5842 5841 5840 5839 5837 5835 5833 5830 5828 5825 5821 5818 5814 5809 5805 5800 5796 5791 5786 5781 5776 5772 5768 5764 5760 5757 5754 5752 5750 5749 5748 5748 5749 5750 5752
5833 5833 5834 5835 5836 5837 5838 5838 5840 5840 5840 5841 5841 5841 5840 5840 5839 5838 5836 5835 5832 5830 5828 5825 5821 5818 5814 5810 5806 5801 5796 5792 5787 5782 5777 5773 5769 5765 5761 5757 5755 5752 5750 5749 5748 5748 5748 5748 5749
5831 5832 5832 5833 5834 5835 5835 5839 5837 5838 5838 5839 5839 5839 5839 5839 5838 5837 5835 5834 5832 5830 5827 5824 5821 5818 5814 5810 5806 5802 5797 5793 5788 5783 5778 5774 5769 5765 5762 5758 5755 5753 5751 5749 5748 5747 5747 5747 5747
5829 5830 5831 5832 5832 5832 5833 5838 5835 5836 5836 5837 5837 5838 5838 5837 5837 5836 5834 5833 5831 5829 5827 5824 5821 5818 5815 5811 5807 5802 5798 5794 5789 5784 5780 5775 5771 5767 5763 5759 5756 5753 5751 5749 5748 5747 5746 5746 5746